sat.trackr.live / text

‹ back to catalog

SVYATOBOR 1 (RS60S)

NORAD 57187 · 2023-091X

PAYLOAD ACTIVE UNKNOWN

§ Identity

Operator
Country
CIS
Launch date
2023-06-27
Launch site
VOSTO
Launch vehicle
Mass (kg)
RCS (m²)

Purposes: comms

External: N2YO · Heavens-Above · Gunter

§ Orbital elements

Epoch: 2026-09-19T22:13:58.336032Z

Period
94.24 min
Inclination
97.4993°
Eccentricity
0.0010492
Mean motion
15.27988197 rev/d
Perigee alt
474.6 km
Apogee alt
489.0 km
Semi-major
6,860.0 km
B*
2.2260e-4
RAAN
327.3113°
Arg perigee
115.5756°
Mean anomaly
244.6569°
Rev number
17,877

§ Raw data

SVYATOBOR 1 (RS60S)1 57187U 23091X   26262.92636963  .00006011  00000+0  22260-3 0  99972 57187  97.4993 327.3113 0010492 115.5756 244.6569 15.27988197178770

JSON: /api/v1/satellites/57187 · /tle

For live sub-satellite position, see the globe view (requires WebGL).

§ Visibility from observer

Set your observer location to see the next 7 days of passes ≥ 10°. The values pass through the URL so the page stays shareable.

No JS? Fill the form by hand. The geolocation button needs JavaScript.

§ Radio — SatNOGS DB

ModeDescriptionDownlinkUplink
GMSK USP Mode U - GMSK 2k4 (USP FEC) TLM 437.875 MHz
GMSK Mode U - GMSK 4k8 (USP FEC) TLM 437.875 MHz

2 transmitters · refreshed weekly from db.satnogs.org